PUA1502 SABE-SACO

Flight info

Callsign PUA1502
Flight time 1h 4m
Altitude 28000
Route ATOVO4B ATOVO UW5 ASISA ASISA1Q
Aircraft A320/M-SDE3FGHIRWY/LB1

Departure

Time 2026-05-03 20:20
Airport Aeroparque Jorge Newbery (SABE)

Arrival

Time 2026-05-03 21:24
Airport Ingeniero Aeronáutico Ambrosio L.V. Taravella International Airport (SACO)
Time Latitude Longitude Altitude Speed Heading
2026-05-03 20:15 -34.56174 -58.40845 26 ft 13 kts 106°
2026-05-03 20:15 -34.56215 -58.40748 27 ft 13 kts 124°
2026-05-03 20:15 -34.56261 -58.40666 30 ft 12 kts 124°
2026-05-03 20:15 -34.56307 -58.40590 28 ft 10 kts 130°
2026-05-03 20:16 -34.56356 -58.40532 28 ft 9 kts 137°
2026-05-03 20:16 -34.56363 -58.40525 25 ft 0 kts 137°
2026-05-03 20:16 -34.56364 -58.40523 25 ft 1 kts 137°
2026-05-03 20:17 -34.56377 -58.40509 30 ft 4 kts 137°
2026-05-03 20:17 -34.56381 -58.40504 28 ft 0 kts 137°
2026-05-03 20:18 -34.56386 -58.40498 28 ft 2 kts 137°
2026-05-03 20:18 -34.56404 -58.40479 27 ft 5 kts 137°
2026-05-03 20:18 -34.56445 -58.40435 29 ft 10 kts 138°
2026-05-03 20:18 -34.56507 -58.40386 25 ft 12 kts 174°
2026-05-03 20:19 -34.56549 -58.40453 26 ft 13 kts 288°
2026-05-03 20:19 -34.56493 -58.40559 29 ft 25 kts 304°
2026-05-03 20:19 -34.56254 -58.40985 27 ft 93 kts 304°
2026-05-03 20:19 -34.55791 -58.41818 28 ft 142 kts 305°
2026-05-03 20:20 -34.55221 -58.42855 506 ft 149 kts 303°
2026-05-03 20:20 -34.54648 -58.43888 1143 ft 147 kts 312°
2026-05-03 20:20 -34.53919 -58.44773 1656 ft 150 kts 325°
2026-05-03 20:20 -34.53026 -58.45441 2176 ft 152 kts 337°
2026-05-03 20:21 -34.52010 -58.45854 2699 ft 156 kts 348°
2026-05-03 20:21 -34.50913 -58.45978 3216 ft 161 kts 359°
2026-05-03 20:21 -34.49785 -58.45772 3720 ft 168 kts 12°
2026-05-03 20:21 -34.48688 -58.45210 4229 ft 175 kts 25°
2026-05-03 20:22 -34.47642 -58.44419 4738 ft 179 kts 26°
2026-05-03 20:22 -34.46575 -58.43618 5254 ft 182 kts 26°
2026-05-03 20:22 -34.45494 -58.42812 5683 ft 189 kts 26°
2026-05-03 20:22 -34.44312 -58.42066 6090 ft 193 kts
2026-05-03 20:23 -34.43010 -58.42179 6504 ft 191 kts 331°
2026-05-03 20:23 -34.42062 -58.43265 6895 ft 193 kts 295°
2026-05-03 20:23 -34.41838 -58.44928 7086 ft 216 kts 266°
2026-05-03 20:23 -34.42101 -58.46832 7113 ft 240 kts 260°
2026-05-03 20:24 -34.42460 -58.48834 7426 ft 247 kts 259°
2026-05-03 20:24 -34.42838 -58.50885 8021 ft 252 kts 259°
2026-05-03 20:24 -34.43228 -58.52967 8647 ft 255 kts 259°
2026-05-03 20:24 -34.43625 -58.55065 9283 ft 256 kts 260°
2026-05-03 20:25 -34.44030 -58.57177 9937 ft 258 kts 259°
2026-05-03 20:25 -34.44438 -58.59314 10540 ft 264 kts 259°
2026-05-03 20:25 -34.44849 -58.61520 11165 ft 272 kts 259°
2026-05-03 20:25 -34.45255 -58.63776 11849 ft 277 kts 259°
2026-05-03 20:26 -34.45654 -58.66075 12549 ft 281 kts 259°
2026-05-03 20:26 -34.46045 -58.68416 13262 ft 285 kts 259°
2026-05-03 20:26 -34.46231 -58.70804 13990 ft 287 kts 275°
2026-05-03 20:26 -34.45667 -58.73131 14640 ft 293 kts 296°
2026-05-03 20:27 -34.44480 -58.75163 15315 ft 297 kts 303°
2026-05-03 20:27 -34.43214 -58.77150 15993 ft 299 kts 304°
2026-05-03 20:27 -34.41954 -58.79111 16678 ft 299 kts 303°
2026-05-03 20:27 -34.40673 -58.81099 17389 ft 299 kts 303°
2026-05-03 20:28 -34.39394 -58.83091 18124 ft 299 kts 303°
2026-05-03 20:28 -34.38126 -58.85076 18794 ft 298 kts 302°
2026-05-03 20:28 -34.36860 -58.87057 19446 ft 296 kts 302°
2026-05-03 20:28 -34.35585 -58.89009 20105 ft 295 kts 304°
2026-05-03 20:29 -34.34241 -58.90882 20783 ft 294 kts 306°
2026-05-03 20:29 -34.32868 -58.92703 21424 ft 293 kts 307°
2026-05-03 20:29 -34.31470 -58.94532 21851 ft 299 kts 307°
2026-05-03 20:29 -34.30047 -58.96395 22280 ft 304 kts 307°
2026-05-03 20:30 -34.28610 -58.98288 22729 ft 308 kts 306°
2026-05-03 20:30 -34.27159 -59.00210 23179 ft 311 kts 306°
2026-05-03 20:30 -34.25694 -59.02163 23640 ft 315 kts 306°
2026-05-03 20:30 -34.24218 -59.04133 24021 ft 318 kts 306°
2026-05-03 20:31 -34.22728 -59.06121 24410 ft 320 kts 306°
2026-05-03 20:31 -34.21225 -59.08128 24794 ft 323 kts 306°
2026-05-03 20:31 -34.19709 -59.10150 25141 ft 327 kts 306°
2026-05-03 20:31 -34.18193 -59.12169 25492 ft 331 kts 306°
2026-05-03 20:32 -34.16638 -59.14240 25848 ft 334 kts 306°
2026-05-03 20:32 -34.15068 -59.16327 26225 ft 337 kts 306°
2026-05-03 20:32 -34.13482 -59.18433 26579 ft 340 kts 305°
2026-05-03 20:32 -34.11884 -59.20554 26951 ft 343 kts 305°
2026-05-03 20:33 -34.10270 -59.22694 27324 ft 346 kts 305°
2026-05-03 20:33 -34.08644 -59.24846 27665 ft 350 kts 305°
2026-05-03 20:33 -34.06984 -59.27048 27793 ft 360 kts 305°
2026-05-03 20:33 -34.05279 -59.29312 27929 ft 369 kts 305°
2026-05-03 20:34 -34.03535 -59.31629 28072 ft 378 kts 305°
2026-05-03 20:34 -34.01741 -59.34016 28100 ft 390 kts 306°
2026-05-03 20:34 -33.99889 -59.36476 28103 ft 402 kts 306°
2026-05-03 20:35 -33.96040 -59.41566 28100 ft 415 kts 306°
2026-05-03 20:35 -33.92125 -59.46697 28095 ft 417 kts 306°
2026-05-03 20:36 -33.88227 -59.51806 28094 ft 417 kts 306°
2026-05-03 20:36 -33.84314 -59.56959 28091 ft 417 kts 306°
2026-05-03 20:37 -33.80403 -59.62104 28082 ft 417 kts 306°
2026-05-03 20:37 -33.76482 -59.67245 28079 ft 417 kts 306°
2026-05-03 20:38 -33.72558 -59.72387 28082 ft 417 kts 306°
2026-05-03 20:38 -33.68626 -59.77526 28084 ft 417 kts 306°
2026-05-03 20:39 -33.64691 -59.82652 28080 ft 418 kts 306°
2026-05-03 20:39 -33.60739 -59.87799 28095 ft 427 kts 307°
2026-05-03 20:39 -33.58704 -59.90456 28088 ft 438 kts 307°
2026-05-03 20:40 -33.56625 -59.93172 28094 ft 445 kts 307°
2026-05-03 20:40 -33.52404 -59.98660 28086 ft 449 kts 307°
2026-05-03 20:41 -33.48164 -60.04153 28082 ft 449 kts 307°
2026-05-03 20:41 -33.43916 -60.09646 28080 ft 449 kts 307°
2026-05-03 20:42 -33.39673 -60.15138 28074 ft 449 kts 307°
2026-05-03 20:42 -33.35461 -60.20580 28065 ft 449 kts 307°
2026-05-03 20:43 -33.31220 -60.26051 28061 ft 449 kts 307°
2026-05-03 20:43 -33.26972 -60.31523 28059 ft 449 kts 307°
2026-05-03 20:44 -33.22725 -60.36990 28050 ft 449 kts 307°
2026-05-03 20:44 -33.18472 -60.42451 28053 ft 449 kts 307°
2026-05-03 20:45 -33.14208 -60.47907 28051 ft 449 kts 307°
2026-05-03 20:45 -33.09943 -60.53353 28044 ft 449 kts 307°
2026-05-03 20:46 -33.05685 -60.58795 28044 ft 449 kts 307°
2026-05-03 20:46 -33.01445 -60.64199 28045 ft 449 kts 307°
2026-05-03 20:47 -32.97175 -60.69637 28041 ft 449 kts 307°
2026-05-03 20:47 -32.92912 -60.75074 28038 ft 449 kts 307°
2026-05-03 20:48 -32.89023 -60.80794 28036 ft 440 kts 295°
2026-05-03 20:48 -32.85895 -60.87042 28037 ft 440 kts 295°
2026-05-03 20:49 -32.82790 -60.93318 28038 ft 440 kts 295°
2026-05-03 20:49 -32.79704 -60.99596 28043 ft 440 kts 295°
2026-05-03 20:50 -32.76619 -61.05869 28043 ft 440 kts 295°
2026-05-03 20:50 -32.73519 -61.12140 28043 ft 440 kts 295°
2026-05-03 20:51 -32.70439 -61.18357 28044 ft 440 kts 295°
2026-05-03 20:51 -32.67333 -61.24617 28043 ft 440 kts 295°
2026-05-03 20:52 -32.64224 -61.30866 28042 ft 440 kts 295°
2026-05-03 20:52 -32.61112 -61.37116 28043 ft 440 kts 295°
2026-05-03 20:53 -32.57998 -61.43367 28039 ft 440 kts 295°
2026-05-03 20:53 -32.54872 -61.49608 28043 ft 440 kts 295°
2026-05-03 20:54 -32.51746 -61.55848 28044 ft 440 kts 295°
2026-05-03 20:54 -32.47084 -61.65162 28042 ft 440 kts 295°
2026-05-03 20:55 -32.43950 -61.71388 28039 ft 440 kts 295°
2026-05-03 20:55 -32.40814 -61.77612 28040 ft 440 kts 295°
2026-05-03 20:56 -32.37676 -61.83835 28037 ft 440 kts 295°
2026-05-03 20:56 -32.34534 -61.90046 28032 ft 440 kts 295°
2026-05-03 20:57 -32.31383 -61.96257 28032 ft 440 kts 296°
2026-05-03 20:57 -32.28233 -62.02453 28030 ft 440 kts 296°
2026-05-03 20:58 -32.25080 -62.08654 28030 ft 440 kts 296°
2026-05-03 20:58 -32.21923 -62.14843 28027 ft 440 kts 296°
2026-05-03 20:59 -32.18764 -62.21024 28025 ft 440 kts 296°
2026-05-03 20:59 -32.15622 -62.27164 28023 ft 440 kts 296°
2026-05-03 21:00 -32.13511 -62.31296 28021 ft 440 kts 296°
2026-05-03 21:00 -32.09293 -62.39498 28021 ft 439 kts 296°
2026-05-03 21:01 -32.06118 -62.45652 28024 ft 439 kts 296°
2026-05-03 21:01 -32.02952 -62.51806 28023 ft 439 kts 296°
2026-05-03 21:02 -31.99788 -62.57946 28033 ft 438 kts 296°
2026-05-03 21:02 -31.96617 -62.64077 28023 ft 438 kts 296°
2026-05-03 21:03 -31.95030 -62.67142 27977 ft 438 kts 296°
2026-05-03 21:03 -31.93456 -62.70185 27609 ft 429 kts 296°
2026-05-03 21:03 -31.91917 -62.73155 27109 ft 421 kts 296°
2026-05-03 21:03 -31.90407 -62.76069 26612 ft 414 kts 296°
2026-05-03 21:04 -31.88938 -62.78896 26131 ft 407 kts 296°
2026-05-03 21:04 -31.87469 -62.81716 25649 ft 401 kts 296°
2026-05-03 21:04 -31.86021 -62.84497 25174 ft 396 kts 296°
2026-05-03 21:04 -31.84591 -62.87242 24704 ft 391 kts 296°
2026-05-03 21:05 -31.83179 -62.89951 24247 ft 386 kts 296°
2026-05-03 21:05 -31.81784 -62.92625 23792 ft 382 kts 296°
2026-05-03 21:05 -31.80400 -62.95279 23308 ft 379 kts 296°
2026-05-03 21:05 -31.79028 -62.97911 22779 ft 376 kts 296°
2026-05-03 21:06 -31.77662 -63.00528 22259 ft 374 kts 296°
2026-05-03 21:06 -31.76307 -63.03125 21751 ft 371 kts 297°
2026-05-03 21:06 -31.75414 -63.04836 21434 ft 370 kts 297°
2026-05-03 21:06 -31.74078 -63.07398 20924 ft 367 kts 297°
2026-05-03 21:07 -31.72747 -63.09947 20439 ft 364 kts 297°
2026-05-03 21:07 -31.71426 -63.12474 19961 ft 362 kts 297°
2026-05-03 21:07 -31.70115 -63.14979 19494 ft 359 kts 297°
2026-05-03 21:07 -31.68787 -63.17447 19030 ft 358 kts 302°
2026-05-03 21:08 -31.66995 -63.19492 18567 ft 363 kts 320°
2026-05-03 21:08 -31.64901 -63.21148 18108 ft 362 kts 322°
2026-05-03 21:08 -31.62802 -63.22770 17580 ft 360 kts 322°
2026-05-03 21:08 -31.60720 -63.24391 17076 ft 359 kts 322°
2026-05-03 21:09 -31.58650 -63.26016 16567 ft 357 kts 322°
2026-05-03 21:09 -31.56602 -63.27637 16089 ft 355 kts 322°
2026-05-03 21:09 -31.54569 -63.29264 15602 ft 353 kts 322°
2026-05-03 21:09 -31.52581 -63.30867 15135 ft 351 kts 322°
2026-05-03 21:10 -31.50587 -63.32493 14668 ft 348 kts 320°
2026-05-03 21:10 -31.48929 -63.34484 14206 ft 339 kts 300°
2026-05-03 21:10 -31.47856 -63.36931 13653 ft 338 kts 292°
2026-05-03 21:10 -31.46893 -63.39447 13022 ft 340 kts 292°
2026-05-03 21:11 -31.45937 -63.41984 12396 ft 341 kts 292°
2026-05-03 21:11 -31.44994 -63.44513 11773 ft 334 kts 292°
2026-05-03 21:11 -31.44344 -63.47052 11171 ft 320 kts 274°
2026-05-03 21:11 -31.44575 -63.49585 10601 ft 311 kts 251°
2026-05-03 21:12 -31.45659 -63.51732 10023 ft 307 kts 227°
2026-05-03 21:12 -31.47406 -63.53125 9489 ft 303 kts 201°
2026-05-03 21:12 -31.49438 -63.53525 9235 ft 291 kts 184°
2026-05-03 21:12 -31.51391 -63.53733 8980 ft 274 kts 198°
2026-05-03 21:13 -31.53054 -63.54627 8735 ft 258 kts 220°
2026-05-03 21:13 -31.54281 -63.56088 8553 ft 246 kts 240°
2026-05-03 21:13 -31.54978 -63.57852 8447 ft 238 kts 259°
2026-05-03 21:13 -31.55148 -63.59838 8356 ft 249 kts 278°
2026-05-03 21:14 -31.54771 -63.61817 8259 ft 249 kts 290°
2026-05-03 21:14 -31.54256 -63.63780 8164 ft 260 kts 289°
2026-05-03 21:14 -31.53712 -63.65851 8062 ft 269 kts 289°
2026-05-03 21:14 -31.53168 -63.67934 7954 ft 271 kts 289°
2026-05-03 21:15 -31.52658 -63.69897 7849 ft 271 kts 289°
2026-05-03 21:15 -31.52111 -63.72004 7677 ft 270 kts 289°
2026-05-03 21:15 -31.51565 -63.74100 7480 ft 268 kts 290°
2026-05-03 21:15 -31.51019 -63.76185 7290 ft 267 kts 290°
2026-05-03 21:16 -31.50476 -63.78265 7092 ft 266 kts 290°
2026-05-03 21:16 -31.49938 -63.80335 6914 ft 265 kts 290°
2026-05-03 21:16 -31.49400 -63.82405 6723 ft 265 kts 290°
2026-05-03 21:16 -31.48864 -63.84461 6541 ft 264 kts 290°
2026-05-03 21:17 -31.48327 -63.86513 6364 ft 263 kts 291°
2026-05-03 21:17 -31.47973 -63.87867 6254 ft 263 kts 291°
2026-05-03 21:17 -31.47259 -63.90597 6019 ft 261 kts 291°
2026-05-03 21:17 -31.46727 -63.92624 5844 ft 260 kts 291°
2026-05-03 21:18 -31.46201 -63.94625 5664 ft 253 kts 291°
2026-05-03 21:18 -31.45688 -63.96575 5492 ft 247 kts 291°
2026-05-03 21:18 -31.45189 -63.98474 5326 ft 241 kts 291°
2026-05-03 21:18 -31.44701 -64.00325 5208 ft 235 kts 292°
2026-05-03 21:19 -31.44234 -64.02103 5104 ft 227 kts 291°
2026-05-03 21:19 -31.43783 -64.03826 5034 ft 215 kts 292°
2026-05-03 21:19 -31.43510 -64.05496 5033 ft 205 kts 278°
2026-05-03 21:19 -31.43510 -64.07138 5032 ft 195 kts 276°
2026-05-03 21:20 -31.43510 -64.08704 4957 ft 195 kts 277°
2026-05-03 21:20 -31.43507 -64.10293 4693 ft 195 kts 277°
2026-05-03 21:20 -31.43503 -64.11882 4399 ft 195 kts 277°
2026-05-03 21:20 -31.43499 -64.13465 4134 ft 195 kts 277°
2026-05-03 21:21 -31.43456 -64.15047 3855 ft 192 kts 288°
2026-05-03 21:21 -31.42962 -64.16445 3659 ft 185 kts 313°
2026-05-03 21:21 -31.42084 -64.17546 3633 ft 185 kts 328°
2026-05-03 21:21 -31.41010 -64.18350 3449 ft 185 kts 333°
2026-05-03 21:22 -31.39896 -64.19092 3202 ft 181 kts 334°
2026-05-03 21:22 -31.38821 -64.19803 2938 ft 173 kts 334°
2026-05-03 21:22 -31.37812 -64.20475 2670 ft 161 kts 337°
2026-05-03 21:22 -31.36817 -64.20785 2452 ft 141 kts
2026-05-03 21:23 -31.35854 -64.20782 2242 ft 137 kts
2026-05-03 21:23 -31.34908 -64.20800 2081 ft 136 kts
2026-05-03 21:23 -31.33966 -64.20801 1964 ft 136 kts
2026-05-03 21:23 -31.33027 -64.20806 1785 ft 135 kts
2026-05-03 21:24 -31.32102 -64.20824 1618 ft 125 kts
2026-05-03 21:24 -31.31524 -64.20830 1619 ft 23 kts 356°
2026-05-03 21:24 -31.31467 -64.20912 1615 ft 6 kts 271°
2026-05-03 21:24 -31.31467 -64.20913 1615 ft 0 kts 271°
2026-05-03 21:27 -31.31467 -64.20917 1613 ft 2 kts 271°
2026-05-03 21:27 -31.31467 -64.20944 1613 ft 5 kts 270°
2026-05-03 21:27 -31.31467 -64.20994 1613 ft 7 kts 266°
2026-05-03 21:27 -31.31494 -64.21055 1618 ft 10 kts 222°
2026-05-03 21:28 -31.31563 -64.21079 1619 ft 12 kts 178°
2026-05-03 21:28 -31.31648 -64.21075 1620 ft 12 kts 179°
2026-05-03 21:28 -31.31705 -64.21098 1619 ft 5 kts 245°
2026-05-03 21:28 -31.31697 -64.21135 1613 ft 4 kts 310°
2026-05-03 21:29 -31.31685 -64.21153 1619 ft 0 kts 308°